Ash Shahamah, UAE

4:10 AM +04 on July 25, 2017 (GMT +0400)
Ash Shahamah

Weather History for 41217 - September, 2013

Change the Weather History Date:

Sunday, September 8, 2013

  Actual Average Record
Temperature  
Mean Temperature 98 °F -  
Max Temperature 106 °F 100 °F - ()
Min Temperature 89 °F 77 °F - ()
Cooling Degree Days 32    
Growing Degree Days 48 (Base 50)    
Moisture  
Dew Point 68 °F    
Average Humidity 42    
Maximum Humidity 71    
Minimum Humidity 14    
Precipitation  
Precipitation 0.00 in 0.00 in - ()
Sea Level Pressure  
Sea Level Pressure 29.60 in    
Wind  
Wind Speed 9 mph ()    
Max Wind Speed 18 mph    
Max Gust Speed -    
Visibility 5.3 miles    
Events      
T = Trace of Precipitation, MM = Missing Value Source: Averaged Metar Reports

Daily Weather History Graph

Daily Weather History Graph

Search for Another Location

Airport or City:

Trip Planner

Search our weather history database for the weather conditions in past years. The results will help you decide how hot, cold, wet, or windy it might be!

Date:

Astronomy

Sep. 08, 2013 Rise Set
Actual Time 6:05 AM +04 6:32 PM +04
Civil Twilight 5:42 AM +04 6:55 PM +04
Nautical Twilight 5:15 AM +04 7:22 PM +04
Astronomical Twilight 4:48 AM +04 7:49 PM +04
Moon 8:33 AM +04 (9/8) 8:19 PM +04 (9/8)
Length of Visible Light 13h 13m
Length of Day
12h 27m
Waxing Crescent, 9% of the Moon is Illuminated
Sep 8
Waxing Crescent
Sep 12
First Quarter
Sep 19
Full
Sep 27
Last Quarter
Oct 5
New

Hourly Weather History & Observations

Time (+04) Temp. Heat Index Dew Point Humidity Pressure Visibility Wind Dir Wind Speed Gust Speed Precip Events Conditions
12:00 AM 95.0 °F 99.5 °F 68.0 °F 41% 29.59 in - East 6.9 mph - N/A   Clear
1:00 AM 95 °F - 66 °F 29% 29.57 in 6 mi ESE 9.2 mph - -   Scattered Clouds
1:00 AM 95.0 °F 98.5 °F 66.2 °F 39% 29.56 in - ESE 9.2 mph - N/A   Clear
2:00 AM 95.0 °F 97.0 °F 64.4 °F 36% 29.56 in - NNE 4.6 mph - N/A   Clear
3:00 AM 93.2 °F 96.2 °F 66.2 °F 41% 29.56 in - North 4.6 mph - N/A   Clear
4:00 AM 89.6 °F 92.2 °F 66.2 °F 46% 29.59 in - NE 3.5 mph - N/A   Clear
5:00 AM 89.6 °F 91.1 °F 64.4 °F 43% 29.59 in - ESE 6.9 mph - N/A   Clear
6:00 AM 93.2 °F 91.3 °F 55.4 °F 28% 29.62 in - SE 10.4 mph - N/A   Clear
7:00 AM 91 °F - 53 °F 18% 29.64 in 6 mi SSE 13.8 mph - -  
7:00 AM 91.4 °F 89.1 °F 53.6 °F 28% 29.62 in - SSE 13.8 mph - N/A   Clear
8:00 AM 93.2 °F 92.6 °F 59.0 °F 32% 29.65 in - SSE 15.0 mph - N/A   Clear
9:00 AM 96.8 °F 98.0 °F 62.6 °F 32% 29.65 in - SSE 16.1 mph - N/A   Clear
10:00 AM 100.4 °F 100.2 °F 59.0 °F 25% 29.65 in 5.0 mi South 12.7 mph - N/A   Unknown
11:00 AM 104.0 °F 102.9 °F 55.4 °F 20% 29.65 in 5.0 mi SSW 10.4 mph - N/A   Unknown
12:00 PM 105.8 °F 104.9 °F 55.4 °F 19% 29.62 in - SSW 10.4 mph - N/A   Clear
12:14 PM 105.8 °F 106.8 °F 59.0 °F 22% 29.62 in - West 11.5 mph - N/A   Clear
1:00 PM 106 °F - 60 °F 14% 29.62 in 6 mi West 11.5 mph - -  
1:00 PM 105.8 °F 107.5 °F 60.8 °F 23% 29.62 in - West 11.5 mph - N/A   Clear
2:00 PM 102.2 °F 124.9 °F 80.6 °F 50% 29.59 in - WNW 15.0 mph - N/A   Clear
3:00 PM 98.6 °F 124.6 °F 82.4 °F 60% 29.59 in - NNW 18.4 mph - N/A   Clear
4:00 PM 98.6 °F 124.6 °F 82.4 °F 60% 29.56 in - NW 17.3 mph - N/A   Clear
5:00 PM 96.8 °F 114.8 °F 78.8 °F 56% 29.56 in - NW 16.1 mph - N/A   Clear
6:00 PM 95.0 °F 115.8 °F 80.6 °F 63% 29.59 in 5.0 mi NNW 13.8 mph - N/A   Unknown
7:00 PM 94 °F - 81 °F 59% 29.60 in 5 mi NNW 11.5 mph - -   Haze
7:00 PM 93.2 °F 113.6 °F 80.6 °F 67% 29.59 in 5.0 mi NNW 11.5 mph - N/A   Unknown
8:00 PM 93.2 °F 117.1 °F 82.4 °F 71% 29.59 in 5.0 mi North 10.4 mph - N/A   Unknown
9:00 PM 93.2 °F 113.6 °F 80.6 °F 67% 29.62 in 5.0 mi NE 9.2 mph - N/A   Unknown
10:00 PM 93.2 °F 110.2 °F 78.8 °F 63% 29.62 in - NNE 3.5 mph - N/A   Clear
11:00 PM 93.2 °F 107.2 °F 77.0 °F 59% 29.62 in - West 3.5 mph - N/A   Clear